DateTimeUTC,F1_A11,F1_S11,BsB_S11,BsG_S11,BsR_S11,BbsB_S11,BbsG_S11,BbsR_S11,BaB_A11,BaG_A11,BaR_A11,Tu_S11,T_S11,Uu_S11,U_S11,P_S11,T1_A11
2021-09-20T05:00:00Z,00000200,21000000,,,,,,,-000.20,-000.36,0000.13,17.9,25.4,,00.0,0655.7,31.0
2021-09-20T05:01:00Z,00000200,21000000,,,,,,,0000.16,0000.13,-000.26,17.9,25.4,,00.0,0655.7,31.0
2021-09-20T05:02:00Z,00000200,21000000,,,,,,,-000.11,0000.10,-000.10,17.9,25.4,,00.0,0655.7,31.0
2021-09-20T05:03:00Z,00000200,61000000,,,,,,,0000.23,0000.27,0000.54,17.9,25.4,,00.0,0655.7,31.0
2021-09-20T05:04:00Z,00000200,41000000,0001.28,0000.67,0000.47,0000.30,0000.06,-000.00,0000.68,0000.61,0000.31,18.4,25.3,,00.0,0656.6,31.0
2021-09-20T05:05:00Z,00000200,01000000,0001.08,0000.39,0000.16,-000.28,0000.11,-000.20,0000.10,-000.01,0000.04,18.5,25.3,,00.0,0656.7,31.1
2021-09-20T05:06:00Z,00000200,01000000,0000.30,0000.48,0000.36,0000.29,-000.03,0000.02,0000.17,0000.13,-000.11,18.6,25.3,,00.0,0656.6,31.1
2021-09-20T05:07:00Z,00000200,01000000,0000.81,0000.43,0000.03,-000.15,-000.43,0000.22,0000.65,0000.66,0000.72,18.7,25.4,,00.0,0656.6,31.1
2021-09-20T05:08:00Z,00000200,01000000,0001.59,0000.78,0000.66,0000.04,0000.13,-000.04,0000.05,0000.32,0000.32,18.7,25.4,,00.0,0656.6,31.1
2021-09-20T05:09:00Z,00000200,01000000,0001.19,0000.84,0000.68,0000.39,0000.05,0000.01,-000.00,0000.09,-000.03,18.7,25.3,,00.0,0656.6,31.1
2021-09-20T05:10:00Z,00000200,01000000,0000.48,0000.02,0000.15,0000.15,-000.11,0000.22,0000.29,0000.10,-000.06,18.6,25.3,,00.0,0656.7,31.0
2021-09-20T05:11:00Z,00000200,01000000,-000.08,0000.24,0000.03,-000.15,-000.14,-000.14,0000.11,-000.03,0000.11,18.5,25.3,,00.0,0656.6,31.0
2021-09-20T05:12:00Z,00000200,01000000,-000.01,0000.16,0000.21,0000.30,-000.15,-000.09,0000.03,0000.16,-000.28,18.4,25.2,,00.0,0656.6,31.0
2021-09-20T05:13:00Z,00000200,01000000,-000.13,-000.16,0000.07,0000.19,-000.23,-000.23,-000.26,-000.50,0000.18,18.4,25.2,,00.0,0656.6,31.0
2021-09-20T05:14:00Z,00000200,01000000,-000.07,0000.19,0000.29,-000.12,-000.24,-000.07,-000.46,-000.25,-000.16,18.3,25.1,,00.0,0656.6,31.0
2021-09-20T05:15:00Z,00000200,01000000,0000.51,-000.31,-000.06,-000.05,-000.16,-000.01,-000.03,0000.19,-000.38,18.3,25.1,,00.0,0656.6,31.0
2021-09-20T05:16:00Z,00000200,01000000,0001.21,-000.19,0000.42,0000.12,-000.03,0000.30,-000.03,-000.06,0000.32,18.3,25.1,,00.0,0656.6,31.0
2021-09-20T05:17:00Z,00000200,01000000,0000.54,-000.03,0000.04,0000.44,-000.02,-000.15,-000.21,-000.28,-000.12,18.4,25.2,,00.0,0656.6,31.0
2021-09-20T05:18:00Z,00000200,01000000,0000.31,0000.29,0000.27,-000.09,-000.23,0000.34,-000.02,-000.18,-000.15,18.5,25.2,,00.0,0656.6,31.0
2021-09-20T05:19:00Z,00000200,01000000,0000.77,0000.38,0000.22,0000.09,-000.11,0000.21,-000.01,0000.21,-000.19,18.6,25.3,,00.0,0656.6,31.1
2021-09-20T05:20:00Z,00000200,01000000,0000.38,0000.19,0000.24,-000.06,-000.32,0000.01,0000.30,0000.08,0000.63,18.7,25.3,,00.0,0656.6,31.1
2021-09-20T05:21:00Z,00000200,01000000,0000.41,0000.14,-000.17,-000.36,-000.07,0000.52,0000.31,0000.19,0000.04,18.7,25.3,,00.0,0656.6,31.1
2021-09-20T05:22:00Z,00000200,01000000,0000.40,0000.11,0000.08,-000.02,0000.18,0000.28,-000.11,0000.08,-000.09,18.7,25.3,,00.0,0656.6,31.1
2021-09-20T05:23:00Z,00000200,01000000,0001.45,0000.30,0000.62,0000.12,-000.23,0000.01,0000.12,0000.08,-000.24,18.7,25.3,,00.0,0656.6,31.1
2021-09-20T05:24:00Z,00000200,01000000,0001.48,0000.92,0000.60,-000.06,0000.08,0000.18,0000.06,0000.25,0000.12,18.6,25.3,,00.0,0656.6,31.0
2021-09-20T05:25:00Z,00000200,01000000,0001.71,0000.92,0000.68,-000.07,-000.05,0000.21,0001.04,0000.94,0000.87,18.5,25.2,,00.0,0656.5,31.0
2021-09-20T05:26:00Z,00000200,01000000,0001.09,0000.99,0000.83,0000.41,-000.08,0000.33,-000.46,-000.57,-000.36,18.4,25.2,,00.0,0656.5,31.0
2021-09-20T05:27:00Z,00000200,01000000,0001.41,0000.71,0000.30,-000.40,-000.11,-000.13,0000.29,0000.10,0000.08,18.4,25.2,,00.0,0656.5,31.0
2021-09-20T05:28:00Z,00000200,01000000,0000.64,0000.56,0000.42,-000.33,-000.01,0000.11,0000.21,0000.39,-000.13,18.3,25.2,,00.0,0656.5,31.0
2021-09-20T05:29:00Z,00000200,01000000,0002.29,0001.25,0000.85,0000.51,-000.07,-000.08,0000.31,0000.28,0000.95,18.3,25.1,,00.0,0656.5,31.0
2021-09-20T05:30:00Z,00000200,01000000,0002.46,0001.48,0000.55,0000.13,0000.02,-000.04,0001.30,0001.16,0000.73,18.2,25.1,,00.0,0656.5,31.0
2021-09-20T05:31:00Z,00000200,01000000,0002.34,0001.18,0000.92,0000.12,0000.14,0000.17,0000.10,0000.10,-000.43,18.3,25.1,,00.0,0656.5,31.0
2021-09-20T05:32:00Z,00000200,01000000,0001.11,0000.99,0000.67,-000.16,0000.29,0000.29,-000.33,-000.33,0000.24,18.4,25.1,,00.0,0656.5,31.0
2021-09-20T05:33:00Z,00000200,01000000,0001.73,0000.97,0000.54,-000.07,0000.23,0000.39,0000.12,0000.01,-000.19,18.4,25.1,,00.0,0656.5,31.1
2021-09-20T05:34:00Z,00000200,01000000,0001.50,0000.90,0000.85,0000.20,-000.10,0000.19,0000.10,0000.27,0000.25,18.5,25.2,,00.0,0656.5,31.0
2021-09-20T05:35:00Z,00000200,01000000,0001.88,0001.55,0001.18,0000.45,0000.31,0000.19,0000.63,0000.19,0000.20,18.6,25.2,,00.0,0656.5,31.1
2021-09-20T05:36:00Z,00000200,01000000,0001.85,0001.36,0000.81,0000.10,0000.14,0000.14,0000.17,0001.00,0000.37,18.7,25.3,,00.0,0656.5,31.1
2021-09-20T05:37:00Z,00000200,01000000,0002.42,0001.52,0001.08,0000.56,0000.01,0000.15,0000.43,-000.10,0000.47,18.7,25.3,,00.0,0656.5,31.1
2021-09-20T05:38:00Z,00000200,01000000,0002.06,0002.01,0000.93,-000.11,0000.23,-000.05,-000.04,0000.29,0000.14,18.7,25.3,,00.0,0656.5,31.0
2021-09-20T05:39:00Z,00000200,01000000,0002.20,0001.71,0001.15,-000.13,0000.13,0000.46,0000.41,0000.25,-000.17,18.6,25.3,,00.0,0656.5,31.0
2021-09-20T05:40:00Z,00000200,01000000,0002.85,0001.65,0000.83,-000.26,0000.05,0000.27,0000.43,0000.36,0000.59,18.6,25.2,,00.0,0656.5,31.0
2021-09-20T05:41:00Z,00000200,01000000,0002.98,0001.62,0000.96,0000.25,0000.32,0000.12,0000.93,0000.34,0000.18,18.5,25.2,,00.0,0656.5,31.0
2021-09-20T05:42:00Z,00000200,01000000,0002.92,0001.63,0000.69,0000.05,-000.11,0000.24,0000.06,0000.54,0000.46,18.4,25.2,,00.0,0656.5,31.0
2021-09-20T05:43:00Z,00000200,01000000,0002.82,0001.31,0000.87,0000.34,0000.02,0000.42,0000.65,0000.39,0000.05,18.3,25.1,,00.0,0656.5,31.0
2021-09-20T05:44:00Z,00000200,01000000,0002.06,0001.43,0001.10,0000.33,0000.03,0000.14,0000.65,0000.90,0000.75,18.3,25.1,,00.0,0656.5,31.0
2021-09-20T05:45:00Z,00000200,01000000,0002.51,0001.34,0000.63,0000.34,-000.11,0000.10,0000.68,0000.45,0000.77,18.3,25.1,,00.0,0656.5,31.0
2021-09-20T05:46:00Z,00000200,01000000,0002.72,0001.17,0000.86,0000.79,-000.03,0000.21,0000.53,-000.06,0000.23,18.3,25.1,,00.0,0656.5,31.0
2021-09-20T05:47:00Z,00000200,01000000,0002.02,0001.25,0000.87,0000.31,0000.10,0000.31,0000.09,0000.86,-000.04,18.4,25.1,,00.0,0656.5,31.0
2021-09-20T05:48:00Z,00000200,01000000,0002.96,0001.43,0000.72,0000.57,-000.00,0000.44,0000.83,0000.20,0000.63,18.5,25.1,,00.0,0656.5,31.0
2021-09-20T05:49:00Z,00000200,01000000,0002.73,0001.44,0001.15,0000.01,0000.42,0000.39,0000.26,0000.56,0000.36,18.6,25.2,,00.0,0656.5,31.1
2021-09-20T05:50:00Z,00000200,01000000,0002.01,0001.73,0001.02,0000.23,-000.08,0000.35,0000.17,0000.08,-000.02,18.6,25.2,,00.0,0656.5,31.1
2021-09-20T05:51:00Z,00000200,01000000,0000.68,0000.13,0000.58,-000.34,-000.05,-000.00,0000.15,0000.46,-000.16,18.7,25.3,,00.0,0656.5,31.1
2021-09-20T05:52:00Z,00000200,01000000,0000.33,-000.09,0000.03,0000.08,-000.06,-000.05,0000.12,-000.57,0000.44,18.7,25.3,,00.0,0656.5,31.1
2021-09-20T05:53:00Z,00000200,01000000,0000.62,0000.25,0000.22,0000.01,-000.24,-000.12,0000.02,0000.04,-000.31,18.7,25.3,,00.0,0656.5,31.0
2021-09-20T05:54:00Z,00000200,01000000,0001.50,0000.92,0000.77,0000.52,-000.10,0000.42,-000.23,0000.04,-000.10,18.6,25.2,,00.0,0656.5,31.0
2021-09-20T05:55:00Z,00000200,01000000,-000.03,-000.09,0000.28,-000.47,0000.06,0000.18,-000.28,-000.08,-000.21,18.5,25.2,,00.0,0656.5,31.0
2021-09-20T05:56:00Z,00000200,01000000,0000.02,-000.12,0000.18,-000.13,0000.14,-000.35,0000.49,0000.26,0000.45,18.5,25.2,,00.0,0656.5,31.0
2021-09-20T05:57:00Z,00000200,41000000,,,,,,,-000.06,-000.13,-000.34,18.5,25.2,,00.0,0656.5,31.0
2021-09-20T05:58:00Z,00000200,61000000,,,,,,,0000.06,0000.07,0000.10,17.9,25.3,,00.0,0655.5,31.0
2021-09-20T05:59:00Z,00000200,21000000,,,,,,,-000.12,-000.06,0000.11,17.9,25.4,,00.0,0655.5,31.0
